Location: Unspecified
(0.0000°N, 0.0000°E)
Time: 02:10:31
(UTC+02:00)

JASON 3 - Pass Details

Date: 30 September 2021
Orbit: 1332 x 1343 km, 66.0° (Epoch: 18 October)

Event Time Altitude Azimuth Distance (km) Brightness Sun altitude
Rises 06:56:00 0° 166° (SSE) 4,344 ? -13.5°
Reaches altitude 10° 07:00:28 10° 144° (SE) 3,372 ? -12.4°
Maximum altitude 07:04:47 15° 111° (ESE) 2,985 ? -11.3°
Drops below altitude 10° 07:09:04 10° 79° (E) 3,371 ? -10.2°
Sets 07:13:28 0° 58° (ENE) 4,343 ? -9.1°
